Wind_Speed
38 41 41 36 33 33 29 26 24 23 24 24 26 29 29 29 29 29 30 31 30 29 29 29 29 29 29 27 26 25 24 24 24 24 22 21 20 19 18 17 16 15 13 13 13 11 13 15 15 14 14 15 16 16 17 16 16 14 14 15 15 15 15
39 40 42 39 36 35 30 26 25 23 23 23 23 27 29 29 29 29 29 29 30 29 29 29 29 30 29 28 27 26 26 25 25 24 24 23 21 19 19 18 17 15 13 13 14 13 14 16 16 16 15 15 15 16 16 16 16 15 14 14 15 16 15
38 39 42 40 38 37 31 28 26 24 23 22 22 24 27 27 27 28 28 28 29 29 29 29 29 29 29 29 29 28 27 26 25 25 24 23 21 20 19 19 18 16 15 15 15 15 15 14 15 16 15 15 15 15 15 16 16 15 14 14 15 16 16
37 38 38 38 39 38 33 30 27 24 24 23 20 20 21 22 24 26 27 27 28 29 29 29 29 29 29 30 30 29 28 27 26 25 23 22 21 21 20 20 20 18 17 17 17 16 15 13 13 14 14 13 13 14 14 14 14 14 14 13 14 15 15
32 33 35 38 40 40 35 31 27 25 24 24 21 18 18 20 22 24 25 26 27 28 28 28 28 29 30 30 30 29 29 27 26 25 24 23 22 23 22 21 21 19 17 17 17 17 15 14 13 13 13 12 11 11 11 12 12 12 12 13 13 13 13
28 31 35 38 40 41 37 30 25 25 25 24 22 20 21 22 22 21 22 24 26 27 28 28 29 29 30 30 30 30 29 28 27 26 25 25 24 24 23 22 22 21 19 18 18 17 16 15 14 13 12 11 10 10 10 10 10 9 9 10 11 12 12
28 31 34 36 38 41 37 29 24 25 25 24 24 24 23 24 23 22 21 21 22 25 27 28 28 28 29 30 30 30 30 29 28 27 26 26 26 25 24 23 23 22 21 20 19 18 17 16 15 14 13 12 11 10 9 9 9 8 7 7 8 9 9
31 31 33 35 38 39 35 28 24 26 27 26 27 28 26 25 25 25 24 22 21 23 25 25 26 27 27 27 28 28 29 29 29 28 27 27 27 26 26 25 24 23 23 23 21 19 18 17 16 16 15 14 13 12 10 9 8 8 7 6 6 6 6
32 30 29 30 35 38 33 26 25 28 28 27 28 30 29 27 26 26 25 24 24 23 23 23 23 24 24 25 26 27 28 29 30 30 29 29 28 27 27 26 25 24 25 24 23 21 19 18 18 17 17 16 15 14 13 11 10 9 7 6 5 5 4
31 29 27 26 33 37 31 26 28 30 29 28 29 31 31 29 27 27 26 27 26 24 22 21 21 22 23 24 25 26 28 29 30 31 31 30 30 29 28 27 26 26 25 24 24 24 21 20 19 18 18 17 16 16 15 13 12 10 9 7 7 6 6
34 31 27 27 33 36 32 28 30 31 30 30 30 32 32 31 30 29 28 28 27 25 24 22 22 22 22 22 23 25 27 29 30 31 31 31 30 29 28 28 27 27 26 25 25 25 23 22 21 20 19 18 16 16 15 14 14 13 12 10 10 10 10
38 32 27 27 31 33 32 29 29 30 31 30 30 31 32 32 31 30 29 28 27 26 25 24 23 22 22 22 22 24 26 27 29 29 30 30 30 29 29 29 28 27 27 26 25 25 25 24 23 22 20 18 16 16 15 15 15 15 14 13 13 12 12
37 35 28 26 28 30 31 29 27 29 32 31 29 29 30 31 32 31 29 28 27 26 27 26 25 24 23 23 22 23 24 25 27 27 28 29 29 29 29 29 29 28 27 26 25 25 25 25 24 23 22 20 18 17 16 16 16 16 15 14 14 13 13
34 35 32 28 29 30 29 27 26 28 31 32 30 28 28 30 30 29 28 28 27 27 27 28 27 25 24 23 23 23 23 22 23 24 25 27 27 28 28 28 28 28 27 26 26 25 25 25 24 24 22 21 20 19 18 18 18 17 16 15 14 14 14
31 33 32 31 33 29 24 23 25 27 30 32 30 29 28 28 27 25 25 26 27 28 28 28 28 26 25 24 23 22 22 21 21 22 23 24 26 27 27 27 28 28 27 27 27 26 25 24 24 24 23 22 22 21 20 20 19 18 16 15 15 16 16
30 31 32 35 35 26 19 20 23 25 29 30 29 29 29 27 25 23 22 24 26 28 29 29 29 28 26 25 24 22 21 21 21 21 22 22 23 24 25 26 26 27 27 27 27 26 25 25 24 24 24 23 22 21 21 20 19 17 16 16 16 17 18
28 29 33 37 35 26 19 18 20 23 28 29 27 28 29 26 23 22 21 23 25 26 28 29 30 30 28 27 25 23 23 23 22 22 22 22 22 23 23 24 25 26 26 27 26 26 26 25 25 25 24 23 22 21 21 20 18 16 16 16 16 16 16
28 28 31 35 35 29 23 19 19 22 26 28 26 26 26 24 22 22 22 22 23 24 26 29 30 31 30 28 27 26 26 25 24 24 24 23 23 22 22 23 24 25 26 26 26 26 26 25 25 24 23 23 22 21 21 19 17 17 16 15 14 14 14
27 25 27 32 34 31 26 21 19 21 26 27 25 23 22 22 22 22 21 20 20 22 24 27 29 30 31 31 30 30 29 28 27 26 26 25 24 23 23 23 24 24 25 25 25 25 26 25 24 23 23 23 22 22 21 19 17 16 16 14 13 13 13
27 25 25 30 33 31 28 24 22 22 24 25 23 21 20 20 21 22 20 19 19 20 22 25 26 28 29 31 32 32 31 31 30 29 28 27 26 25 24 24 24 24 24 24 24 25 25 24 24 23 23 24 23 22 21 19 17 16 16 15 13 13 14
32 33 32 34 35 34 30 28 26 25 23 23 23 22 21 21 22 23 22 22 22 22 22 22 24 25 27 28 30 31 32 32 32 32 31 30 29 28 27 26 25 25 25 25 25 25 24 23 23 24 24 24 24 23 21 19 18 17 16 15 15 15 16
31 35 37 37 37 36 33 30 28 27 26 26 26 25 23 23 24 25 25 25 24 24 23 23 23 24 24 25 27 29 30 32 33 33 33 33 32 31 30 28 27 26 26 26 26 26 25 24 24 24 24 24 25 24 22 20 19 19 18 17 17 18 20
26 29 32 33 33 33 31 29 28 29 29 30 29 28 25 25 26 27 26 26 27 26 26 25 24 23 23 23 23 24 25 27 29 31 33 33 34 34 33 32 30 28 28 27 27 27 26 26 25 24 24 25 25 25 24 22 21 21 20 20 20 21 22
31 30 30 29 28 28 28 27 28 30 30 30 30 29 28 28 29 28 27 28 28 28 28 27 25 24 23 21 20 19 19 20 23 26 29 32 34 35 35 35 34 32 31 30 29 28 28 27 27 26 26 26 26 26 26 24 23 23 23 23 23 24 24
32 31 29 26 24 24 25 25 26 27 27 26 25 25 24 24 24 25 26 26 27 28 29 28 26 25 24 21 19 17 16 15 16 19 23 27 30 32 34 35 36 36 35 33 32 30 30 29 29 29 28 28 27 27 27 27 26 26 26 26 25 26 26
30 29 28 26 24 22 22 22 23 23 23 22 21 21 20 20 20 20 20 21 23 25 26 25 24 23 22 20 19 17 16 15 15 14 16 20 24 27 29 31 34 36 37 37 35 34 33 32 32 31 31 30 29 29 29 29 29 29 28 28 28 28 28
26 25 25 25 24 22 21 20 20 20 20 20 20 20 21 21 20 20 20 19 20 22 23 23 21 21 20 20 19 19 18 18 17 16 15 15 18 22 26 28 30 32 35 37 37 37 37 35 34 33 32 32 31 31 31 31 31 31 31 30 30 30 31
23 22 21 22 23 22 21 20 19 18 18 18 19 19 20 20 21 21 22 21 21 21 22 23 22 22 22 22 21 21 21 20 19 18 18 17 17 18 21 26 28 30 32 34 36 37 38 38 37 35 34 33 33 33 33 33 33 33 33 32 32 32 33
22 21 20 21 22 22 21 21 21 21 20 20 20 21 21 22 22 23 24 25 24 24 24 24 24 24 24 24 24 24 23 22 21 20 20 21 21 20 19 21 25 28 30 32 33 35 36 37 38 37 36 35 35 34 34 35 35 35 34 34 34 35 35
23 23 22 22 23 23 22 23 23 23 23 22 23 24 25 26 26 27 27 28 27 27 27 27 27 27 26 26 26 26 25 24 23 23 23 23 24 24 23 21 22 26 30 31 32 32 33 35 36 37 37 37 36 36 37 37 37 36 35 35 36 36 36
24 23 23 23 24 24 23 23 23 24 24 24 24 26 28 30 31 31 32 32 32 31 30 30 29 29 28 28 28 27 27 26 26 27 28 28 27 27 26 24 22 24 29 32 32 32 32 33 34 34 36 36 37 38 39 39 38 38 37 37 37 38 38
27 26 25 24 24 24 23 23 23 23 25 25 26 27 28 30 32 33 34 35 36 35 34 32 31 30 30 30 30 30 30 30 30 30 31 31 29 28 27 27 25 24 27 31 34 34 34 33 33 34 34 35 37 38 39 39 38 38 38 38 38 39 39
28 28 27 27 26 24 24 22 21 22 24 27 28 28 28 28 29 30 31 33 34 36 37 36 35 33 32 31 31 31 32 32 32 32 32 32 30 27 27 28 27 25 25 28 33 36 36 35 35 35 35 36 37 38 38 37 38 38 37 37 38 38 38
26 27 28 28 28 26 25 25 23 24 26 29 31 31 30 30 28 28 29 29 29 32 35 36 36 34 33 32 32 32 33 33 33 33 33 32 30 27 27 27 27 27 26 26 29 34 37 37 37 36 36 36 37 37 37 37 37 37 36 36 36 36 36
20 22 24 26 26 26 27 29 30 29 28 28 31 32 33 32 30 28 27 27 27 29 31 34 35 34 34 34 34 34 34 34 34 34 33 32 30 28 27 27 27 27 27 26 27 30 34 37 37 37 36 35 35 35 35 35 35 35 34 34 34 33 33
15 16 19 23 25 27 28 28 28 27 26 25 25 27 29 29 29 27 26 25 26 27 28 31 33 34 34 33 33 33 33 33 32 32 31 30 30 28 28 27 27 27 27 27 27 28 30 33 34 35 34 33 32 32 32 31 31 32 31 31 31 31 31
14 16 20 23 25 26 25 22 20 21 22 21 20 21 22 23 25 26 26 25 25 25 26 28 30 31 31 30 30 30 30 29 29 30 30 31 30 29 28 28 27 26 26 26 26 26 27 28 29 29 29 29 28 28 28 28 28 29 29 28 28 29 28
17 20 22 22 22 21 21 19 18 18 20 20 18 17 17 19 22 24 25 25 25 25 24 25 27 28 28 28 28 27 26 26 27 28 29 29 29 28 27 26 25 24 24 23 23 23 23 23 24 23 24 24 25 25 25 25 25 25 25 25 25 24 23
Wind_Direction
226 222 217 215 213 210 213 217 218 210 203 205 208 208 207 207 205 202 200 198 196 196 199 199 200 202 203 204 204 205 206 209 213 217 220 220 218 218 218 218 216 213 208 210 215 211 203 205 208 206 206 206 206 205 207 209 209 207 202 195 193 195 194
222 222 218 216 215 212 214 220 221 214 206 206 209 209 210 210 209 207 204 201 198 196 197 199 200 202 202 203 204 206 207 209 211 214 218 220 219 217 218 220 218 213 207 204 206 206 202 201 202 202 203 203 205 205 205 208 209 207 203 197 195 198 199
222 223 220 218 218 215 215 219 221 217 210 207 208 211 213 214 214 211 206 203 200 197 197 198 200 202 202 202 204 206 208 209 211 213 216 219 220 219 219 220 220 214 207 204 204 206 206 201 198 201 204 203 204 207 206 206 207 206 204 200 198 201 203
225 225 224 224 221 215 215 219 220 219 214 209 208 211 214 216 216 213 209 204 201 200 199 199 200 201 201 203 204 206 208 209 211 213 215 217 221 223 222 220 222 219 210 205 205 207 208 203 197 198 202 204 203 205 207 206 205 205 205 204 201 203 205
226 225 225 224 220 214 214 217 219 218 214 209 206 205 208 210 211 211 208 204 202 202 202 201 201 201 201 203 205 206 208 210 211 212 213 216 220 224 224 220 221 223 216 209 207 210 211 207 202 196 197 201 198 198 201 203 205 203 203 203 203 205 207
225 227 223 221 220 218 215 214 216 216 212 208 203 200 202 204 204 205 204 202 201 200 202 203 203 202 202 203 205 206 208 209 211 212 212 214 217 222 225 222 221 223 222 217 212 212 213 211 209 203 197 197 196 191 189 191 197 197 195 194 196 202 207
225 228 224 220 220 220 214 210 214 215 211 207 203 201 202 202 201 201 200 200 198 198 201 202 203 203 203 205 206 206 207 209 211 212 213 214 216 219 223 223 222 221 222 222 218 215 214 213 213 210 204 201 200 196 191 188 188 191 190 184 181 188 198
226 225 225 223 222 219 212 209 214 214 211 207 204 203 203 201 200 201 200 198 197 196 199 201 202 204 204 206 208 208 208 209 210 212 214 215 217 218 220 222 222 221 222 223 222 219 217 215 214 213 211 208 206 205 205 202 199 200 197 187 182 183 187
221 220 220 223 224 217 209 212 216 212 209 207 206 204 205 203 200 200 200 200 200 198 198 199 201 203 205 207 209 209 210 210 210 211 212 215 217 218 220 222 222 221 222 222 224 223 221 217 216 215 215 214 211 210 211 212 214 217 212 205 207 210 213
216 218 216 217 222 214 207 212 212 207 206 207 206 204 205 206 202 200 201 202 204 202 199 199 199 201 205 207 209 210 211 212 212 212 213 214 216 217 218 221 222 223 223 222 223 224 223 222 220 219 219 218 217 215 214 215 218 224 226 228 235 242 247
216 216 214 214 218 214 208 208 204 201 203 204 204 204 204 205 203 201 202 203 205 205 203 202 201 202 204 206 209 211 212 214 214 214 215 215 216 216 217 219 222 224 224 224 224 223 224 225 225 224 223 221 221 219 218 219 222 227 231 237 245 252 258
216 213 213 213 216 213 208 204 199 200 205 204 203 204 203 204 204 203 203 204 206 207 206 207 206 205 205 206 208 211 213 215 216 217 218 218 218 217 217 219 221 223 225 225 226 225 224 225 227 227 227 225 225 224 221 222 225 229 233 239 247 253 259
211 211 214 212 210 209 205 201 198 202 207 208 207 205 203 205 206 205 204 205 207 207 208 210 211 210 208 207 208 210 212 215 217 219 220 221 221 220 219 220 221 223 225 226 227 227 225 226 227 228 229 229 230 230 228 228 230 232 236 241 247 254 260
202 208 215 209 202 201 200 199 201 205 208 210 210 207 202 204 207 206 205 206 208 209 209 212 215 215 213 211 210 209 211 214 217 220 222 224 224 223 223 223 224 225 225 226 228 229 227 227 228 229 230 231 233 234 234 236 237 238 241 245 250 257 264
197 203 206 201 195 195 201 207 208 208 208 208 209 207 200 199 201 202 203 205 208 211 211 213 218 219 218 217 215 212 211 213 216 219 222 224 225 225 225 225 226 226 226 226 228 229 229 229 229 229 230 231 233 235 236 239 241 243 246 251 259 266 271
196 200 200 197 194 192 201 213 211 208 205 203 205 205 200 197 200 202 204 205 208 210 211 214 218 221 221 221 219 216 214 214 216 218 221 224 226 226 227 227 228 227 227 227 228 228 229 230 229 230 230 231 232 234 237 240 243 247 252 259 265 270 270
192 192 195 197 195 191 194 204 206 203 201 200 202 203 202 203 209 212 211 209 209 211 212 214 217 221 224 224 222 219 218 217 217 218 220 223 225 226 227 228 229 230 230 229 228 227 227 228 230 231 231 233 234 235 237 241 246 252 257 261 263 264 263
189 187 193 196 197 194 192 194 199 199 197 199 200 203 207 212 217 219 216 212 212 212 212 214 217 220 223 225 224 222 221 219 219 219 220 222 224 225 226 228 230 231 232 231 229 228 227 228 230 231 233 235 236 237 239 242 247 252 254 252 251 252 255
189 188 191 196 200 199 194 190 193 195 196 198 200 204 211 217 220 222 221 219 217 214 213 215 217 219 221 223 225 225 223 222 222 222 222 223 224 225 225 227 229 231 232 232 231 230 229 229 229 231 234 236 237 239 241 242 242 241 240 237 237 242 250
191 189 188 194 200 200 196 193 194 197 199 201 205 211 217 225 228 229 230 230 227 222 218 217 217 219 220 221 224 225 225 225 225 224 224 224 225 225 225 226 228 231 233 233 232 232 232 230 230 230 233 237 238 239 239 236 231 228 227 228 232 241 251
196 198 197 199 201 200 198 198 200 203 205 207 212 217 222 229 234 235 235 235 233 230 228 225 222 221 220 220 222 223 224 225 226 226 226 226 226 226 225 226 227 229 232 233 234 234 234 234 233 233 234 237 239 239 234 228 224 223 225 229 236 245 253
193 199 203 204 204 204 205 205 206 209 211 213 217 221 224 228 233 236 235 235 236 235 235 233 228 224 220 218 218 220 221 223 225 226 227 227 228 229 228 227 227 227 229 231 234 235 235 235 235 234 235 236 237 237 232 227 226 228 230 235 241 248 253
176 185 191 193 196 199 200 201 204 209 212 215 219 220 220 222 227 231 233 234 235 236 236 235 231 225 218 213 211 214 215 218 221 224 226 227 229 230 230 229 228 228 229 230 232 233 234 235 235 235 235 235 235 235 234 232 233 236 239 243 248 252 255
164 169 171 173 178 183 186 189 195 201 206 210 214 216 218 222 226 231 233 234 234 234 235 233 229 223 218 212 209 209 210 212 213 216 220 225 228 230 230 231 230 229 229 230 232 233 234 235 235 235 235 235 235 237 238 239 240 244 247 250 254 257 260
159 161 161 161 163 168 174 180 187 193 196 202 207 213 219 222 225 228 231 232 231 232 233 232 229 224 220 219 219 219 218 218 214 211 213 218 223 227 229 230 231 231 231 231 232 234 234 235 236 236 236 238 239 240 242 244 246 249 253 257 261 264 266
157 161 164 165 166 168 173 176 182 187 191 195 199 204 209 211 214 218 221 225 229 231 232 233 231 227 225 226 227 228 230 232 230 224 218 214 216 221 226 229 230 231 231 231 232 233 234 235 236 238 238 240 242 244 245 248 251 254 258 262 265 268 270
160 162 167 172 175 178 180 179 180 183 188 194 199 203 206 210 213 216 218 223 228 232 234 235 233 231 230 231 232 233 236 240 241 242 240 232 221 217 220 225 228 229 230 231 231 232 233 235 237 239 240 242 244 246 247 250 253 256 259 262 265 267 270
166 164 168 176 181 185 190 191 192 194 198 202 207 210 213 217 221 224 224 225 227 231 235 237 237 237 236 236 237 239 241 245 247 249 251 252 246 232 222 221 225 228 229 229 230 232 233 234 236 238 241 242 244 246 249 251 254 257 259 262 264 266 269
176 174 174 178 183 188 195 199 202 206 210 213 217 219 222 225 228 232 231 230 229 231 234 236 236 237 239 240 240 241 242 246 250 254 255 257 259 254 241 228 225 226 228 228 229 230 232 234 235 238 240 242 244 246 248 251 254 256 259 261 264 266 269
182 182 182 184 187 192 198 202 204 207 211 216 222 226 228 229 231 234 237 237 236 236 238 238 237 236 237 239 240 242 244 247 251 256 260 261 261 261 258 247 233 229 229 229 229 229 231 232 234 237 239 242 244 245 248 250 253 255 258 260 263 266 270
190 189 189 191 195 198 202 206 210 213 217 222 227 232 234 234 234 237 240 241 241 240 239 240 241 239 238 239 241 244 246 248 251 255 259 262 262 262 261 258 248 237 232 231 231 230 230 231 232 235 238 240 243 245 247 250 252 254 257 260 263 266 269
200 202 202 204 205 206 209 214 219 224 227 229 230 232 235 237 238 239 240 240 241 240 239 238 240 241 242 243 245 247 248 250 252 253 254 257 260 261 260 259 256 247 238 234 234 233 231 231 231 233 236 238 241 244 247 249 252 254 257 261 264 266 269
200 204 207 209 211 213 215 218 225 236 239 237 234 234 236 239 243 245 244 243 242 241 239 238 238 239 241 243 246 247 249 250 250 250 251 252 256 258 258 257 257 254 246 240 238 237 236 234 232 233 235 237 240 243 246 249 252 255 258 261 264 267 269
199 203 207 213 217 221 224 229 242 255 254 245 240 239 240 243 246 248 247 246 245 242 240 238 238 239 240 242 244 246 248 249 250 250 250 251 254 257 257 258 259 259 255 248 243 241 241 240 238 237 237 239 241 243 246 249 251 254 257 260 263 267 270
202 208 214 220 226 234 242 250 260 265 260 248 243 243 245 247 249 248 246 246 246 244 240 237 237 237 239 242 244 246 248 250 251 250 249 250 253 255 257 259 260 260 258 253 248 245 243 243 243 243 243 243 245 247 249 251 253 255 258 260 263 266 268
206 217 226 231 238 247 254 259 262 261 255 249 247 248 250 250 249 247 244 244 246 246 242 238 237 238 240 243 245 246 247 248 249 249 247 247 250 253 256 258 258 257 256 253 250 247 244 243 244 244 245 247 248 249 252 254 256 258 260 261 262 263 264
215 228 237 243 246 249 250 251 250 249 249 248 248 249 251 251 249 246 243 242 243 246 245 241 239 240 241 242 244 245 245 244 244 244 243 243 246 249 252 254 255 254 252 250 249 247 245 244 244 244 245 247 249 250 252 254 255 258 260 260 261 262 263
228 237 241 242 240 238 237 237 237 238 240 242 241 240 242 244 244 243 241 239 240 243 244 242 241 241 241 241 242 243 242 241 240 239 239 240 241 243 246 248 249 249 248 246 244 242 241 242 243 242 242 245 248 249 250 250 253 257 258 258 259 261 264
Height
3127 3130 3133 3137 3139 3141 3142 3144 3146 3147 3148 3150 3153 3156 3158 3160 3162 3163 3164 3166 3168 3171 3173 3176 3178 3180 3182 3185 3187 3190 3192 3194 3196 3198 3200 3202 3204 3206 3207 3209 3211 3212 3213 3214 3215 3216 3217 3217 3218 3219 3220 3221 3222 3224 3225 3226 3227 3229 3230 3231 3232 3233 3234
3124 3127 3130 3133 3136 3138 3141 3143 3144 3145 3147 3148 3151 3153 3156 3158 3159 3161 3162 3164 3166 3168 3171 3173 3176 3178 3180 3183 3185 3187 3189 3192 3194 3196 3198 3200 3202 3204 3206 3207 3209 3211 3212 3213 3214 3214 3215 3216 3217 3218 3219 3220 3221 3222 3224 3225 3226 3227 3228 3229 3230 3231 3232
3122 3123 3127 3130 3132 3135 3138 3140 3142 3143 3145 3146 3148 3151 3153 3156 3157 3159 3161 3163 3164 3166 3168 3171 3173 3176 3178 3181 3183 3185 3187 3189 3192 3194 3196 3198 3201 3203 3204 3206 3208 3210 3211 3212 3213 3213 3214 3215 3216 3217 3218 3219 3220 3221 3222 3223 3225 3226 3227 3228 3229 3230 3231
3119 3121 3124 3127 3129 3132 3135 3138 3139 3141 3143 3145 3147 3149 3152 3154 3156 3158 3159 3161 3163 3164 3166 3168 3170 3173 3176 3178 3180 3182 3184 3187 3189 3192 3194 3197 3199 3201 3203 3204 3206 3208 3209 3211 3212 3213 3213 3214 3215 3216 3217 3218 3219 3220 3221 3222 3224 3225 3226 3227 3228 3229 3230
3116 3119 3122 3124 3127 3130 3132 3135 3137 3139 3141 3143 3145 3148 3151 3153 3155 3157 3158 3159 3161 3163 3165 3167 3169 3171 3173 3175 3178 3180 3182 3185 3187 3189 3192 3194 3197 3198 3200 3202 3204 3206 3208 3210 3211 3212 3212 3213 3214 3215 3216 3217 3218 3219 3220 3221 3222 3224 3225 3226 3227 3228 3229
3113 3116 3119 3121 3124 3126 3129 3133 3134 3137 3139 3141 3144 3147 3149 3151 3153 3155 3157 3158 3159 3161 3163 3165 3166 3168 3171 3173 3175 3178 3180 3182 3184 3187 3189 3191 3194 3196 3198 3200 3202 3204 3206 3208 3209 3211 3211 3212 3213 3215 3216 3216 3217 3218 3219 3220 3221 3223 3224 3225 3226 3227 3228
3110 3113 3115 3118 3121 3123 3127 3131 3133 3135 3137 3140 3143 3145 3147 3149 3152 3154 3156 3157 3158 3159 3160 3162 3164 3166 3168 3171 3173 3175 3178 3180 3182 3185 3187 3189 3191 3193 3195 3198 3200 3202 3204 3205 3207 3209 3210 3212 3213 3214 3215 3216 3217 3217 3218 3219 3220 3221 3222 3224 3225 3226 3226
3108 3110 3113 3116 3118 3121 3126 3129 3131 3133 3136 3138 3140 3142 3145 3148 3150 3152 3154 3155 3156 3157 3158 3160 3162 3164 3166 3169 3171 3173 3176 3178 3180 3182 3184 3186 3188 3190 3193 3195 3197 3200 3201 3203 3205 3207 3209 3210 3212 3213 3214 3215 3216 3217 3217 3218 3219 3220 3221 3222 3223 3224 3225
3105 3108 3111 3114 3116 3120 3124 3127 3129 3131 3133 3136 3138 3140 3143 3146 3148 3150 3152 3154 3155 3156 3157 3159 3161 3163 3165 3167 3169 3171 3174 3175 3177 3179 3181 3183 3185 3188 3190 3192 3195 3197 3198 3201 3203 3204 3206 3208 3210 3211 3213 3214 3215 3216 3216 3217 3218 3219 3220 3220 3221 3222 3223
3103 3106 3109 3112 3114 3118 3122 3125 3127 3129 3131 3133 3136 3138 3141 3144 3146 3148 3150 3152 3153 3154 3156 3158 3160 3161 3163 3165 3167 3170 3171 3173 3174 3176 3178 3180 3182 3185 3188 3190 3192 3194 3196 3198 3200 3202 3204 3206 3208 3209 3210 3212 3213 3214 3215 3216 3217 3218 3218 3219 3220 3220 3221
3101 3104 3107 3109 3112 3116 3121 3123 3124 3126 3129 3131 3134 3136 3139 3141 3144 3145 3147 3149 3151 3153 3155 3157 3158 3159 3161 3163 3165 3167 3169 3170 3172 3174 3175 3178 3180 3182 3185 3187 3189 3191 3193 3195 3197 3199 3202 3203 3205 3207 3208 3210 3211 3213 3214 3215 3216 3216 3217 3217 3218 3219 3219
3097 3101 3104 3106 3110 3114 3118 3120 3122 3124 3127 3130 3132 3135 3137 3139 3141 3143 3145 3147 3150 3152 3154 3155 3156 3158 3160 3161 3163 3165 3167 3168 3170 3172 3174 3176 3178 3180 3183 3184 3187 3189 3191 3193 3195 3197 3199 3201 3203 3204 3206 3208 3209 3211 3212 3213 3214 3214 3215 3216 3216 3217 3217
3095 3099 3101 3104 3108 3112 3116 3118 3120 3122 3125 3128 3131 3133 3136 3138 3139 3141 3144 3146 3148 3150 3152 3154 3155 3156 3158 3160 3161 3163 3165 3166 3168 3170 3172 3174 3176 3178 3180 3182 3184 3186 3188 3191 3192 3194 3196 3198 3200 3202 3204 3206 3207 3208 3210 3211 3211 3212 3213 3214 3214 3215 3215
3092 3096 3099 3103 3107 3110 3113 3115 3117 3121 3124 3127 3129 3132 3134 3136 3138 3140 3142 3144 3146 3148 3150 3152 3153 3155 3156 3158 3159 3161 3163 3165 3167 3169 3171 3172 3174 3176 3178 3180 3182 3184 3186 3188 3190 3191 3193 3196 3198 3200 3201 3203 3204 3206 3207 3208 3208 3209 3211 3212 3212 3213 3213
3089 3093 3096 3100 3104 3107 3110 3113 3115 3119 3121 3124 3127 3130 3133 3135 3137 3139 3141 3143 3145 3146 3149 3150 3152 3153 3155 3156 3157 3159 3162 3164 3165 3167 3169 3170 3172 3174 3175 3178 3180 3182 3184 3185 3187 3189 3191 3193 3195 3197 3198 3200 3201 3203 3204 3204 3205 3207 3208 3209 3210 3211 3211
3087 3091 3094 3098 3101 3105 3109 3111 3114 3116 3119 3122 3125 3128 3131 3133 3135 3137 3139 3141 3143 3144 3147 3148 3150 3151 3153 3154 3156 3159 3161 3162 3164 3165 3167 3168 3170 3171 3173 3175 3177 3179 3181 3183 3185 3187 3189 3191 3192 3194 3195 3197 3198 3200 3201 3201 3203 3204 3206 3207 3207 3208 3208
3086 3089 3093 3096 3100 3104 3107 3110 3112 3115 3118 3121 3124 3127 3130 3132 3134 3136 3137 3139 3141 3142 3144 3146 3147 3149 3150 3153 3155 3158 3159 3161 3162 3163 3165 3166 3168 3169 3171 3173 3175 3176 3178 3180 3182 3184 3186 3188 3189 3191 3192 3194 3196 3197 3198 3199 3200 3202 3203 3204 3205 3205 3205
3084 3088 3091 3095 3099 3102 3105 3108 3111 3113 3117 3120 3123 3126 3128 3130 3132 3134 3135 3137 3139 3141 3142 3144 3145 3146 3148 3151 3153 3155 3157 3159 3160 3161 3163 3164 3166 3167 3169 3171 3172 3174 3175 3177 3180 3182 3184 3185 3187 3188 3190 3191 3193 3194 3195 3196 3198 3199 3201 3201 3202 3203 3203
3083 3087 3091 3094 3098 3101 3104 3107 3109 3112 3115 3119 3122 3124 3127 3129 3130 3132 3134 3136 3137 3139 3140 3141 3143 3144 3146 3149 3151 3152 3154 3156 3158 3159 3160 3162 3164 3166 3167 3168 3170 3171 3173 3175 3177 3180 3181 3183 3185 3186 3187 3188 3190 3191 3192 3194 3196 3197 3198 3199 3200 3201 3201
3082 3086 3090 3093 3097 3101 3104 3106 3109 3111 3114 3117 3120 3123 3125 3127 3128 3130 3132 3134 3135 3137 3138 3139 3141 3142 3144 3146 3148 3150 3152 3153 3155 3156 3158 3160 3162 3163 3165 3166 3167 3169 3171 3173 3175 3176 3178 3180 3182 3184 3185 3185 3187 3188 3190 3191 3193 3195 3196 3197 3198 3199 3199
3080 3084 3087 3091 3095 3099 3102 3105 3108 3111 3113 3116 3118 3121 3123 3125 3127 3129 3130 3131 3133 3134 3136 3137 3138 3140 3141 3143 3145 3147 3148 3150 3151 3153 3155 3157 3159 3160 3162 3163 3165 3167 3168 3170 3172 3173 3175 3178 3179 3181 3182 3183 3184 3186 3187 3189 3190 3192 3193 3195 3196 3197 3197
3080 3082 3086 3090 3094 3097 3101 3104 3107 3109 3112 3114 3117 3119 3122 3123 3125 3127 3128 3129 3131 3132 3133 3135 3136 3137 3139 3140 3142 3143 3145 3147 3148 3150 3152 3154 3155 3157 3159 3160 3162 3164 3166 3167 3169 3171 3172 3174 3176 3177 3179 3181 3182 3183 3184 3186 3188 3189 3191 3192 3193 3194 3194
3080 3083 3086 3089 3093 3096 3099 3102 3104 3107 3109 3112 3114 3117 3119 3121 3122 3124 3126 3127 3128 3129 3131 3132 3134 3135 3137 3138 3139 3141 3142 3144 3146 3147 3149 3151 3152 3153 3155 3158 3160 3162 3163 3164 3166 3168 3169 3171 3173 3175 3176 3178 3178 3179 3180 3183 3185 3186 3187 3189 3190 3190 3190
3080 3083 3086 3089 3092 3094 3097 3099 3102 3104 3106 3109 3112 3114 3116 3118 3120 3122 3123 3125 3126 3127 3128 3130 3132 3133 3134 3136 3137 3139 3140 3141 3143 3144 3146 3147 3148 3150 3152 3154 3156 3158 3160 3161 3163 3165 3166 3168 3170 3171 3173 3174 3175 3176 3177 3179 3181 3182 3183 3185 3186 3186 3186
3079 3082 3085 3088 3091 3094 3096 3098 3101 3103 3105 3108 3110 3112 3114 3116 3118 3120 3121 3122 3124 3125 3126 3128 3130 3132 3133 3134 3135 3136 3137 3139 3140 3142 3143 3144 3146 3147 3149 3151 3152 3154 3156 3158 3160 3162 3163 3165 3166 3168 3169 3170 3172 3173 3174 3174 3176 3177 3178 3180 3181 3182 3182
3078 3081 3084 3088 3090 3093 3096 3098 3101 3103 3105 3107 3109 3111 3113 3115 3116 3118 3119 3121 3122 3123 3125 3127 3129 3130 3131 3132 3133 3134 3135 3136 3137 3139 3140 3141 3143 3144 3146 3147 3149 3151 3152 3154 3156 3158 3160 3161 3162 3164 3165 3167 3168 3169 3170 3171 3172 3173 3174 3175 3176 3176 3177
3078 3080 3084 3087 3089 3092 3095 3097 3100 3102 3104 3106 3108 3110 3112 3114 3115 3117 3118 3119 3121 3122 3123 3125 3126 3128 3129 3130 3131 3132 3133 3134 3135 3136 3137 3139 3140 3142 3143 3144 3146 3147 3148 3150 3152 3154 3155 3157 3159 3160 3162 3163 3164 3165 3166 3167 3168 3169 3170 3171 3172 3172 3172
3078 3081 3083 3086 3089 3091 3094 3096 3099 3101 3103 3105 3107 3109 3111 3112 3114 3115 3117 3118 3119 3121 3122 3123 3124 3125 3127 3128 3129 3130 3131 3132 3133 3134 3135 3136 3137 3139 3140 3141 3142 3143 3145 3146 3148 3149 3151 3153 3155 3156 3158 3159 3160 3161 3162 3163 3164 3165 3166 3167 3168 3168 3168
3078 3080 3083 3086 3088 3090 3093 3095 3097 3099 3101 3103 3105 3107 3109 3110 3111 3113 3114 3116 3117 3119 3120 3121 3122 3123 3124 3125 3126 3127 3128 3129 3130 3131 3132 3133 3134 3136 3137 3138 3139 3140 3141 3142 3144 3145 3147 3148 3150 3152 3153 3155 3156 3157 3158 3159 3160 3161 3162 3163 3163 3164 3164
3077 3080 3083 3085 3087 3089 3092 3094 3096 3098 3099 3101 3103 3104 3106 3107 3109 3110 3111 3113 3114 3115 3117 3118 3120 3121 3122 3123 3124 3125 3126 3127 3128 3128 3129 3130 3131 3132 3134 3135 3136 3137 3138 3139 3140 3141 3143 3144 3146 3147 3149 3150 3152 3153 3154 3155 3156 3157 3158 3159 3159 3159 3160
3076 3079 3081 3084 3086 3088 3090 3092 3094 3096 3097 3098 3100 3102 3103 3104 3106 3107 3108 3110 3111 3112 3114 3115 3116 3118 3119 3120 3122 3123 3123 3124 3125 3126 3126 3127 3128 3129 3131 3132 3133 3134 3135 3135 3136 3137 3139 3140 3141 3143 3144 3146 3147 3148 3149 3150 3152 3153 3153 3154 3155 3155 3156
3075 3077 3080 3082 3084 3086 3088 3090 3092 3094 3095 3096 3097 3098 3100 3101 3102 3104 3105 3106 3107 3108 3110 3112 3113 3114 3116 3117 3118 3119 3120 3121 3122 3123 3124 3124 3125 3126 3127 3128 3129 3130 3131 3132 3133 3134 3135 3136 3137 3139 3140 3142 3143 3143 3144 3146 3147 3148 3149 3150 3151 3151 3152
3073 3076 3078 3080 3081 3083 3085 3087 3089 3091 3092 3093 3094 3095 3096 3097 3099 3100 3101 3102 3103 3104 3106 3108 3109 3111 3112 3113 3114 3115 3117 3118 3119 3120 3120 3121 3122 3124 3124 3124 3125 3126 3127 3128 3129 3130 3131 3132 3133 3134 3136 3137 3138 3139 3140 3142 3143 3144 3145 3146 3146 3146 3147
3071 3074 3076 3078 3079 3081 3083 3085 3087 3088 3089 3090 3091 3092 3093 3094 3095 3096 3097 3098 3099 3100 3102 3103 3105 3107 3108 3110 3111 3112 3113 3114 3114 3115 3116 3118 3119 3120 3120 3121 3121 3122 3123 3124 3125 3126 3127 3128 3129 3130 3132 3132 3133 3135 3136 3138 3139 3140 3141 3142 3142 3142 3142
3069 3071 3073 3075 3077 3079 3080 3082 3084 3085 3086 3086 3087 3088 3089 3090 3092 3092 3093 3095 3096 3097 3098 3100 3101 3103 3104 3105 3106 3107 3108 3109 3110 3111 3113 3114 3116 3116 3116 3117 3117 3118 3119 3119 3120 3121 3122 3124 3125 3127 3128 3129 3129 3131 3132 3133 3135 3136 3137 3137 3138 3138 3138
3067 3069 3071 3072 3074 3076 3078 3079 3081 3082 3083 3083 3084 3085 3086 3087 3088 3089 3090 3091 3093 3093 3094 3096 3097 3099 3100 3101 3102 3103 3104 3105 3107 3108 3109 3110 3111 3112 3112 3113 3113 3114 3115 3115 3116 3117 3118 3119 3121 3123 3124 3124 3125 3127 3128 3129 3130 3131 3132 3132 3133 3133 3133
3064 3066 3068 3070 3072 3074 3076 3077 3078 3079 3080 3080 3081 3082 3083 3084 3085 3086 3087 3088 3089 3090 3091 3092 3093 3095 3096 3097 3098 3099 3100 3102 3103 3104 3105 3107 3107 3108 3108 3109 3109 3110 3111 3111 3112 3113 3114 3116 3117 3118 3120 3120 3121 3122 3123 3124 3125 3126 3127 3127 3128 3128 3129
3061 3063 3065 3067 3070 3072 3073 3074 3075 3076 3077 3078 3079 3079 3080 3080 3081 3082 3084 3085 3086 3087 3087 3089 3090 3091 3092 3094 3094 3095 3097 3098 3099 3101 3102 3103 3103 3104 3104 3105 3106 3106 3107 3108 3109 3110 3111 3112 3113 3115 3116 3116 3117 3118 3119 3120 3121 3122 3123 3123 3123 3124 3125